Archiv-/Tagesdaten

--Timestamp---	Temp	Chill	HIndex	Humid	Dewpt	 Wind 	HiWind	WindDir	Rain 	Barom	Solar	 ET  	 UV 
--------------	----	-----	------	-----	-----	------	------	-------	-----	-----	-----	-----	----
20260323 00:00	2.8	2.8	2.8	78	-0.6	0	0	-100000	0.0	1011.6	0	0.000	0.0
20260323 00:05	2.7	2.7	2.7	79	-0.6	0	0	-100000	0.0	1011.6	0	0.000	0.0
20260323 00:10	2.7	2.7	2.7	79	-0.6	0	0	-100000	0.0	1011.6	0	0.000	0.0
20260323 00:15	2.6	2.6	2.6	80	-0.5	0	0	-100000	0.0	1011.6	0	0.000	0.0
20260323 00:20	2.5	2.5	2.5	80	-0.6	0	0	-100000	0.0	1011.6	0	0.000	0.0
20260323 00:25	2.4	2.4	2.4	80	-0.7	0	0	-100000	0.0	1011.6	0	0.000	0.0
20260323 00:30	2.3	2.3	2.3	80	-0.8	0	0	-100000	0.0	1011.9	0	0.000	0.0
20260323 00:35	2.2	2.2	2.2	80	-0.9	0	0	-100000	0.0	1011.9	0	0.000	0.0
20260323 00:40	2.1	2.1	2.1	81	-0.8	0	0	-100000	0.0	1012.0	0	0.000	0.0
20260323 00:45	2.0	2.0	2.0	81	-0.9	0	0	-100000	0.0	1012.0	0	0.000	0.0
20260323 00:50	1.8	1.8	1.8	82	-0.9	0	0	-100000	0.0	1012.1	0	0.000	0.0
20260323 00:55	1.8	1.8	1.8	82	-1.0	0	0	-100000	0.0	1012.0	0	0.000	0.0
20260323 01:00	1.7	1.7	1.7	82	-1.0	0	0	-100000	0.0	1012.1	0	0.000	0.0
20260323 01:05	1.6	1.6	1.6	82	-1.1	0	0	-100000	0.0	1011.9	0	0.000	0.0
20260323 01:10	1.6	1.6	1.6	82	-1.1	0	0	-100000	0.0	1011.8	0	0.000	0.0
20260323 01:15	1.6	1.6	1.6	83	-1.0	0	0	-100000	0.0	1011.9	0	0.000	0.0
20260323 01:20	1.5	1.5	1.5	83	-1.1	0	0	-100000	0.0	1012.0	0	0.000	0.0
20260323 01:25	1.6	1.6	1.6	83	-1.0	0	0	-100000	0.0	1012.0	0	0.000	0.0
20260323 01:30	1.7	1.7	1.7	83	-0.9	0	0	-100000	0.0	1012.0	0	0.000	0.0
20260323 01:35	1.7	1.7	1.7	83	-0.9	0	0	-100000	0.0	1012.1	0	0.000	0.0
20260323 01:40	1.6	1.6	1.6	84	-0.9	0	0	-100000	0.0	1012.1	0	0.000	0.0
20260323 01:45	1.6	1.6	1.6	83	-1.0	0	0	-100000	0.0	1012.1	0	0.000	0.0
20260323 01:50	1.5	1.5	1.5	83	-1.1	0	0	-100000	0.0	1012.0	0	0.000	0.0
20260323 01:55	1.4	1.4	1.4	84	-1.0	0	0	-100000	0.0	1012.1	0	0.000	0.0
20260323 02:00	1.3	1.3	1.3	84	-1.1	0	0	-100000	0.0	1012.2	0	0.000	0.0
20260323 02:05	1.3	1.3	1.3	84	-1.1	0	5	158	0.0	1012.2	0	0.000	0.0
20260323 02:10	1.2	1.2	1.2	84	-1.2	3	5	158	0.0	1012.2	0	0.000	0.0
20260323 02:15	1.2	1.2	1.2	84	-1.2	3	6	158	0.0	1012.2	0	0.000	0.0
20260323 02:20	1.1	1.1	1.1	84	-1.3	5	6	158	0.0	1012.3	0	0.000	0.0
20260323 02:25	1.1	1.1	1.1	84	-1.3	3	5	180	0.0	1012.4	0	0.000	0.0
20260323 02:30	1.0	1.0	1.0	84	-1.4	3	6	180	0.0	1012.4	0	0.000	0.0
20260323 02:35	0.9	0.9	0.9	84	-1.5	3	6	158	0.0	1012.4	0	0.000	0.0
20260323 02:40	0.8	0.8	0.8	85	-1.4	3	8	180	0.0	1012.4	0	0.000	0.0
20260323 02:45	0.8	0.8	0.8	84	-1.6	0	2	180	0.0	1012.5	0	0.000	0.0
20260323 02:50	0.7	0.7	0.7	85	-1.5	0	0	-100000	0.0	1012.5	0	0.000	0.0
20260323 02:55	0.7	0.7	0.7	85	-1.6	0	0	-100000	0.0	1012.5	0	0.000	0.0
20260323 03:00	0.6	0.6	0.6	85	-1.6	0	0	-100000	0.0	1012.5	0	0.000	0.0
20260323 03:05	0.6	0.6	0.6	85	-1.7	0	0	-100000	0.0	1012.5	0	0.000	0.0
20260323 03:10	0.5	0.5	0.5	85	-1.7	0	0	-100000	0.0	1012.5	0	0.000	0.0
20260323 03:15	0.4	0.4	0.4	85	-1.8	0	0	-100000	0.0	1012.5	0	0.000	0.0
20260323 03:20	0.4	0.4	0.4	85	-1.8	0	0	-100000	0.0	1012.5	0	0.000	0.0
20260323 03:25	0.4	0.4	0.4	85	-1.8	0	0	-100000	0.0	1012.6	0	0.000	0.0
20260323 03:30	0.4	0.4	0.4	85	-1.8	0	0	-100000	0.0	1012.6	0	0.000	0.0
20260323 03:35	0.4	0.4	0.4	85	-1.8	0	0	-100000	0.0	1012.6	0	0.000	0.0
20260323 03:40	0.4	0.4	0.4	86	-1.6	0	0	-100000	0.0	1012.7	0	0.000	0.0
20260323 03:45	0.4	0.4	0.4	86	-1.6	0	0	-100000	0.0	1012.7	0	0.000	0.0
20260323 03:50	0.5	0.5	0.5	86	-1.6	0	0	-100000	0.0	1012.8	0	0.000	0.0
20260323 03:55	0.5	0.5	0.5	86	-1.6	0	0	-100000	0.0	1012.9	0	0.000	0.0
20260323 04:00	0.5	0.5	0.5	86	-1.6	0	0	-100000	0.0	1013.0	0	0.000	0.0
20260323 04:05	0.6	0.6	0.6	86	-1.5	0	0	-100000	0.0	1013.2	0	0.000	0.0
20260323 04:10	0.8	0.8	0.8	86	-1.3	0	0	-100000	0.0	1013.1	0	0.000	0.0
20260323 04:15	0.9	0.9	0.9	86	-1.2	0	0	-100000	0.0	1013.2	0	0.000	0.0
20260323 04:20	1.0	1.0	1.0	86	-1.1	0	0	-100000	0.0	1013.2	0	0.000	0.0
20260323 04:25	1.1	1.1	1.1	85	-1.1	0	0	-100000	0.0	1013.2	0	0.000	0.0
20260323 04:30	1.2	1.2	1.2	86	-0.9	0	0	-100000	0.0	1013.3	0	0.000	0.0
20260323 04:35	1.2	1.2	1.2	85	-1.0	0	0	-100000	0.0	1013.3	0	0.000	0.0
20260323 04:40	1.3	1.3	1.3	85	-1.0	0	0	-100000	0.0	1013.3	0	0.000	0.0
20260323 04:45	1.3	1.3	1.3	85	-0.9	0	0	-100000	0.0	1013.3	0	0.000	0.0
20260323 04:50	1.4	1.4	1.4	85	-0.9	0	0	-100000	0.0	1013.3	0	0.000	0.0
20260323 04:55	1.4	1.4	1.4	85	-0.9	0	0	-100000	0.0	1013.3	0	0.000	0.0
20260323 05:00	1.4	1.4	1.4	85	-0.8	0	0	-100000	0.0	1013.3	0	0.000	0.0
20260323 05:05	1.4	1.4	1.4	85	-0.8	0	0	-100000	0.0	1013.5	0	0.000	0.0
20260323 05:10	1.4	1.4	1.4	85	-0.9	0	0	-100000	0.0	1013.6	0	0.000	0.0
20260323 05:15	1.4	1.4	1.4	85	-0.9	0	0	-100000	0.0	1013.7	0	0.000	0.0
20260323 05:20	1.3	1.3	1.3	85	-0.9	0	0	-100000	0.0	1013.8	0	0.000	0.0
20260323 05:25	1.2	1.2	1.2	85	-1.0	0	0	-100000	0.0	1013.8	0	0.000	0.0
20260323 05:30	1.2	1.2	1.2	85	-1.1	0	0	-100000	0.0	1013.8	0	0.000	0.0
20260323 05:35	1.1	1.1	1.1	85	-1.1	0	0	-100000	0.0	1013.8	0	0.000	0.0
20260323 05:40	1.0	1.0	1.0	85	-1.2	0	0	-100000	0.0	1013.9	0	0.000	0.0
20260323 05:45	0.9	0.9	0.9	86	-1.1	0	0	-100000	0.0	1014.0	0	0.000	0.0
20260323 05:50	0.8	0.8	0.8	86	-1.2	0	0	-100000	0.0	1014.0	0	0.000	0.0
20260323 05:55	0.8	0.8	0.8	86	-1.3	0	0	-100000	0.0	1014.1	0	0.000	0.0
20260323 06:00	0.7	0.7	0.7	86	-1.3	0	0	-100000	0.0	1014.1	0	0.000	0.0
20260323 06:05	0.7	0.7	0.7	86	-1.3	0	0	-100000	0.0	1014.4	0	0.000	0.0
20260323 06:10	0.7	0.7	0.7	86	-1.4	0	0	-100000	0.0	1014.4	0	0.000	0.0
20260323 06:15	0.6	0.6	0.6	86	-1.5	0	0	-100000	0.0	1014.5	2	0.000	0.0
20260323 06:20	0.6	0.6	0.6	86	-1.5	0	0	-100000	0.0	1014.6	6	0.000	0.0
20260323 06:25	0.6	0.6	0.6	86	-1.5	0	0	-100000	0.0	1014.7	9	0.000	0.0
20260323 06:30	0.7	0.7	0.7	86	-1.4	0	0	-100000	0.0	1014.7	11	0.000	0.0
20260323 06:35	0.7	0.7	0.7	87	-1.2	0	0	-100000	0.0	1014.9	14	0.000	0.0
20260323 06:40	0.7	0.7	0.7	87	-1.2	0	0	-100000	0.0	1014.9	18	0.000	0.0
20260323 06:45	0.8	0.8	0.8	87	-1.1	0	0	-100000	0.0	1014.9	21	0.000	0.0
20260323 06:50	0.8	0.8	0.8	87	-1.1	0	3	135	0.0	1015.0	25	0.000	0.0
20260323 06:55	0.9	0.9	0.9	87	-1.0	2	3	135	0.0	1015.1	28	0.000	0.0
20260323 07:00	1.1	1.1	1.1	86	-1.0	0	0	-100000	0.0	1015.2	32	0.000	0.0
20260323 07:05	1.2	1.2	1.2	87	-0.8	0	0	-100000	0.0	1015.3	33	0.000	0.0
20260323 07:10	1.3	1.3	1.3	86	-0.7	0	0	-100000	0.0	1015.4	41	0.000	0.0
20260323 07:15	1.5	1.5	1.5	86	-0.6	0	0	-100000	0.0	1015.4	49	0.000	0.0
20260323 07:20	1.7	1.7	1.7	86	-0.4	0	0	-100000	0.0	1015.5	55	0.000	0.0
20260323 07:25	1.9	1.9	1.9	86	-0.2	0	0	-100000	0.0	1015.5	55	0.000	0.0
20260323 07:30	2.1	2.1	2.1	86	-0.0	0	0	-100000	0.0	1015.5	60	0.000	0.0
20260323 07:35	2.2	2.2	2.2	85	-0.1	0	0	-100000	0.0	1015.5	66	0.000	0.0
20260323 07:40	2.4	2.4	2.4	85	0.1	2	5	202	0.0	1015.6	71	0.000	0.0
20260323 07:45	2.6	2.6	2.6	85	0.3	0	3	202	0.0	1015.6	73	0.000	0.0
20260323 07:50	2.8	2.8	2.8	85	0.5	0	5	202	0.0	1015.7	77	0.000	0.0
20260323 07:55	2.9	2.9	2.9	85	0.7	0	0	-100000	0.0	1015.7	81	0.000	0.0
20260323 08:00	3.2	3.2	3.2	84	0.7	0	8	225	0.0	1015.6	87	0.025	0.0
20260323 08:05	3.3	3.3	3.3	84	0.9	5	10	225	0.0	1015.8	90	0.000	0.0
20260323 08:10	3.4	3.4	3.4	83	0.8	5	8	225	0.0	1015.8	97	0.000	0.0
20260323 08:15	3.6	3.6	3.6	83	1.0	5	10	248	0.0	1015.7	111	0.000	0.0
20260323 08:20	3.8	2.2	3.8	82	1.0	6	10	225	0.0	1015.8	121	0.000	0.0
20260323 08:25	3.9	3.9	3.9	82	1.1	3	10	225	0.0	1015.9	124	0.000	0.0
20260323 08:30	4.1	2.5	4.1	82	1.3	6	10	225	0.0	1016.0	121	0.000	0.0
20260323 08:35	4.2	2.2	4.2	81	1.2	8	14	248	0.0	1016.1	126	0.000	0.0
20260323 08:40	4.3	4.3	4.3	81	1.4	5	10	248	0.0	1016.1	134	0.000	0.0
20260323 08:45	4.5	3.0	4.5	80	1.4	6	11	225	0.0	1016.2	123	0.000	0.0
20260323 08:50	4.6	3.1	4.6	79	1.3	6	11	225	0.0	1016.2	107	0.000	0.0
20260323 08:55	4.7	2.8	4.7	79	1.4	8	13	248	0.0	1016.1	80	0.000	0.2
20260323 09:00	4.8	3.3	4.8	78	1.3	6	11	248	0.0	1016.0	66	0.051	0.5
20260323 09:05	5.0	3.6	5.0	78	1.5	6	11	225	0.0	1016.3	63	0.000	0.5
20260323 09:10	5.3	3.9	5.3	78	1.8	6	10	225	0.0	1016.3	59	0.000	0.5
20260323 09:15	5.5	4.2	5.5	77	1.8	6	10	225	0.0	1016.3	55	0.000	0.2
20260323 09:20	5.7	4.4	5.7	75	1.6	6	11	270	0.0	1016.5	52	0.000	0.0
20260323 09:25	5.9	4.2	5.9	74	1.6	8	11	248	0.0	1016.4	51	0.000	0.0
20260323 09:30	6.1	4.8	6.1	74	1.8	6	11	270	0.0	1016.4	53	0.000	0.0
20260323 09:35	6.2	4.6	6.2	73	1.7	8	16	270	0.0	1016.4	53	0.000	0.0
20260323 09:40	6.3	5.1	6.3	74	2.0	6	14	270	0.0	1016.5	54	0.000	0.0
20260323 09:45	6.6	5.4	6.6	74	2.3	6	13	270	0.0	1016.5	55	0.000	0.4
20260323 09:50	6.7	5.5	6.7	72	2.0	6	11	225	0.0	1016.5	54	0.000	0.0
20260323 09:55	6.8	5.2	6.8	71	1.9	8	14	270	0.0	1016.6	54	0.000	0.0
20260323 10:00	6.8	5.7	6.8	72	2.1	6	13	225	0.0	1016.6	56	0.051	0.7
20260323 10:05	6.9	5.8	6.9	71	2.1	6	13	292	0.0	1016.7	58	0.000	0.7
20260323 10:10	7.3	6.2	7.3	70	2.2	6	13	270	0.0	1016.7	60	0.000	0.8
20260323 10:15	7.6	7.6	7.6	70	2.4	5	14	248	0.0	1016.7	59	0.000	0.8
20260323 10:20	7.7	6.7	7.7	68	2.1	6	14	270	0.0	1016.8	58	0.000	0.8
20260323 10:25	7.8	6.9	7.8	68	2.3	6	10	248	0.0	1016.8	60	0.000	0.8
20260323 10:30	8.0	8.0	8.0	67	2.2	5	11	292	0.0	1016.8	61	0.000	0.8
20260323 10:35	8.3	8.3	8.3	66	2.3	5	10	270	0.0	1016.6	62	0.000	0.9
20260323 10:40	8.3	7.4	8.3	65	2.1	6	11	292	0.0	1016.6	63	0.000	0.9
20260323 10:45	8.5	7.6	8.5	65	2.3	6	14	270	0.0	1016.7	66	0.000	0.9
20260323 10:50	8.8	8.0	8.8	64	2.3	6	13	248	0.0	1016.8	67	0.000	0.9
20260323 10:55	9.0	9.0	9.0	64	2.6	5	10	202	0.0	1016.8	67	0.000	0.9
20260323 11:00	9.2	8.4	9.2	62	2.3	6	16	248	0.0	1016.7	68	0.051	0.9
20260323 11:05	9.4	8.7	9.4	62	2.5	6	10	270	0.0	1016.9	69	0.000	1.0
20260323 11:10	9.7	9.7	9.7	61	2.6	5	11	292	0.0	1016.8	69	0.000	1.0
20260323 11:15	9.9	9.9	9.9	59	2.3	5	10	270	0.0	1016.9	66	0.000	1.0
20260323 11:20	9.8	9.8	9.8	60	2.4	5	11	315	0.0	1017.0	67	0.000	1.0
20260323 11:25	10.0	10.0	10.0	59	2.4	6	11	270	0.0	1017.0	69	0.000	1.0
20260323 11:30	10.1	10.1	10.1	57	1.9	3	8	270	0.0	1017.0	71	0.000	1.0
20260323 11:35	10.0	10.0	10.0	56	1.6	5	10	248	0.0	1017.1	72	0.000	1.0
20260323 11:40	10.1	10.1	10.1	57	1.9	2	8	270	0.0	1017.0	75	0.000	1.1
20260323 11:45	10.4	10.4	10.4	59	2.7	5	14	292	0.0	1016.9	76	0.000	1.1
20260323 11:50	10.5	10.5	10.5	58	2.6	6	16	292	0.0	1016.9	77	0.000	1.1
20260323 11:55	10.4	10.4	10.4	58	2.5	8	16	248	0.0	1017.0	83	0.000	1.1
20260323 12:00	10.8	10.8	10.8	57	2.7	5	10	248	0.0	1016.9	91	0.051	1.1
20260323 12:05	11.1	11.1	11.1	55	2.4	6	14	292	0.0	1017.1	97	0.000	1.1
20260323 12:10	11.2	11.2	11.2	54	2.3	10	18	292	0.0	1017.1	97	0.000	1.1
20260323 12:15	11.2	11.2	11.2	53	2.0	8	16	292	0.0	1017.2	98	0.000	1.1
20260323 12:20	11.2	11.2	11.2	53	1.9	10	19	315	0.0	1017.0	96	0.000	1.1
20260323 12:25	11.3	11.3	11.3	53	2.0	8	14	292	0.0	1017.1	99	0.000	1.1
20260323 12:30	11.4	11.4	11.4	53	2.2	5	14	270	0.0	1017.0	101	0.000	1.2
20260323 12:35	11.7	11.7	11.7	53	2.4	8	19	292	0.0	1017.0	106	0.000	1.2
20260323 12:40	11.9	11.9	11.9	52	2.4	6	11	315	0.0	1017.0	360	0.000	1.2
20260323 12:45	12.1	12.1	12.1	51	2.2	8	16	315	0.0	1016.9	596	0.000	1.3
20260323 12:50	12.3	12.3	12.3	49	1.9	10	16	292	0.0	1017.0	585	0.000	1.7
20260323 12:55	12.4	12.4	12.4	50	2.3	6	16	315	0.0	1016.9	574	0.000	1.7
20260323 13:00	12.4	12.4	12.4	47	1.4	13	23	315	0.0	1016.9	529	0.178	1.7
20260323 13:05	12.6	12.6	12.6	48	1.8	8	19	315	0.0	1016.9	541	0.000	1.7
20260323 13:10	12.7	12.7	12.7	49	2.2	3	10	292	0.0	1016.9	524	0.000	1.6
20260323 13:15	13.0	13.0	13.0	48	2.2	8	16	292	0.0	1016.8	572	0.000	1.7
20260323 13:20	13.2	13.2	13.2	47	2.1	5	18	292	0.0	1016.7	557	0.000	1.7
20260323 13:25	13.3	13.3	13.3	45	1.6	8	18	315	0.0	1016.6	570	0.000	1.6
20260323 13:30	13.0	13.0	13.0	42	0.4	10	18	292	0.0	1016.7	105	0.000	1.1
20260323 13:35	12.3	12.3	12.3	41	-0.5	6	16	270	0.0	1016.8	192	0.000	1.3
20260323 13:40	12.4	12.4	12.4	43	0.2	6	11	315	0.0	1016.8	547	0.000	1.6
20260323 13:45	12.7	12.7	12.7	43	0.4	3	8	315	0.0	1016.8	537	0.000	1.5
20260323 13:50	13.0	13.0	13.0	41	0.1	6	16	292	0.0	1016.9	307	0.000	1.4
20260323 13:55	13.2	13.2	13.2	42	0.5	2	8	248	0.0	1016.7	560	0.000	1.4
20260323 14:00	13.1	13.1	13.1	41	0.2	5	11	0	0.0	1016.7	226	0.254	1.1
20260323 14:05	13.0	13.0	13.0	41	0.1	6	16	292	0.0	1016.8	200	0.000	1.0
20260323 14:10	12.8	12.8	12.8	41	-0.1	10	21	292	0.0	1016.9	222	0.000	1.0
20260323 14:15	12.6	12.6	12.6	42	-0.0	6	16	270	0.0	1016.9	214	0.000	0.9
20260323 14:20	12.5	12.5	12.5	42	-0.1	10	16	292	0.0	1016.9	322	0.000	1.1
20260323 14:25	12.8	12.8	12.8	41	-0.1	10	18	270	0.0	1016.9	498	0.000	1.2
20260323 14:30	13.2	13.2	13.2	41	0.2	3	10	270	0.0	1016.9	446	0.000	1.2
20260323 14:35	13.3	13.3	13.3	40	-0.0	8	18	315	0.0	1017.0	199	0.000	0.9
20260323 14:40	13.1	13.1	13.1	40	-0.2	10	23	315	0.0	1017.0	171	0.000	1.0
20260323 14:45	12.8	12.8	12.8	40	-0.5	8	18	292	0.0	1017.0	158	0.000	0.8
20260323 14:50	12.6	12.6	12.6	41	-0.3	5	11	292	0.0	1017.0	162	0.000	0.8
20260323 14:55	12.5	12.5	12.5	42	-0.1	6	19	315	0.0	1017.0	265	0.000	0.9
20260323 15:00	12.6	12.6	12.6	41	-0.3	8	18	315	0.0	1017.0	121	0.178	0.7
20260323 15:05	12.4	12.4	12.4	42	-0.1	11	21	315	0.0	1017.1	157	0.000	0.8
20260323 15:10	12.6	12.6	12.6	42	-0.0	10	18	292	0.0	1017.1	338	0.000	0.9
20260323 15:15	12.9	12.9	12.9	43	0.6	6	16	315	0.0	1017.0	421	0.000	0.9
20260323 15:20	13.3	13.3	13.3	41	0.4	6	11	270	0.0	1017.0	376	0.000	0.8
20260323 15:25	13.6	13.6	13.6	43	1.3	6	14	270	0.0	1017.0	410	0.000	0.7
20260323 15:30	14.1	14.1	14.1	42	1.3	6	16	315	0.0	1016.9	444	0.000	0.7
20260323 15:35	14.2	14.2	14.2	42	1.4	5	16	315	0.0	1017.0	447	0.000	0.7
20260323 15:40	14.1	14.1	14.1	41	1.1	5	10	338	0.0	1017.0	326	0.000	0.6
20260323 15:45	13.9	13.9	13.9	41	0.9	5	10	315	0.0	1017.1	273	0.000	0.4
20260323 15:50	13.7	13.7	13.7	41	0.7	5	19	315	0.0	1017.1	193	0.000	0.0
20260323 15:55	13.3	13.3	13.3	41	0.3	8	16	315	0.0	1017.3	168	0.000	0.0
20260323 16:00	12.9	12.9	12.9	43	0.6	10	21	292	0.0	1017.4	152	0.203	0.0
20260323 16:05	12.6	12.6	12.6	43	0.3	11	21	315	0.0	1017.4	134	0.000	0.0
20260323 16:10	12.3	12.3	12.3	45	0.7	10	18	315	0.0	1017.5	121	0.000	0.0
20260323 16:15	12.2	12.2	12.2	45	0.6	6	18	292	0.0	1017.5	122	0.000	0.0
20260323 16:20	12.2	12.2	12.2	45	0.6	6	13	292	0.0	1017.5	111	0.000	0.0
20260323 16:25	12.0	12.0	12.0	45	0.4	8	16	292	0.0	1017.6	93	0.000	0.0
20260323 16:30	11.9	11.9	11.9	45	0.3	10	18	270	0.0	1017.6	96	0.000	0.0
20260323 16:35	11.8	11.8	11.8	45	0.3	8	11	292	0.0	1017.7	95	0.000	0.0
20260323 16:40	11.8	11.8	11.8	45	0.3	5	10	292	0.0	1017.7	99	0.000	0.0
20260323 16:45	11.9	11.9	11.9	45	0.4	6	11	315	0.0	1017.8	186	0.000	0.0
20260323 16:50	12.3	12.3	12.3	44	0.4	5	11	292	0.0	1017.9	228	0.000	0.0
20260323 16:55	12.7	12.7	12.7	44	0.8	5	10	270	0.0	1017.8	212	0.000	0.0
20260323 17:00	13.1	13.1	13.1	43	0.8	3	10	292	0.0	1017.8	185	0.127	0.0
20260323 17:05	13.1	13.1	13.1	41	0.2	6	11	292	0.0	1018.0	122	0.000	0.0
20260323 17:10	12.8	12.8	12.8	42	0.2	5	10	292	0.0	1018.1	64	0.000	0.0
20260323 17:15	12.4	12.4	12.4	44	0.5	6	13	292	0.0	1018.2	54	0.000	0.0
20260323 17:20	12.1	12.1	12.1	45	0.5	5	14	292	0.0	1018.3	48	0.000	0.0
20260323 17:25	11.8	11.8	11.8	46	0.6	6	11	292	0.0	1018.4	41	0.000	0.0
20260323 17:30	11.7	11.7	11.7	47	0.7	6	10	270	0.0	1018.4	39	0.000	0.0
20260323 17:35	11.6	11.6	11.6	48	0.9	6	13	292	0.0	1018.5	31	0.000	0.0
20260323 17:40	11.4	11.4	11.4	48	0.8	8	11	270	0.0	1018.5	25	0.000	0.0
20260323 17:45	11.3	11.3	11.3	49	1.0	6	14	270	0.0	1018.7	22	0.000	0.0
20260323 17:50	11.2	11.2	11.2	49	0.8	5	10	292	0.0	1018.7	18	0.000	0.0
20260323 17:55	11.1	11.1	11.1	49	0.8	6	13	292	0.0	1018.7	15	0.000	0.0
20260323 18:00	11.1	11.1	11.1	51	1.3	5	10	292	0.0	1018.8	12	0.051	0.0
20260323 18:05	10.9	10.9	10.9	51	1.2	5	8	292	0.0	1018.7	8	0.000	0.0
20260323 18:10	10.9	10.9	10.9	52	1.5	5	8	292	0.0	1018.8	5	0.000	0.0
20260323 18:15	10.8	10.8	10.8	51	1.1	5	11	292	0.0	1018.8	1	0.000	0.0
20260323 18:20	10.8	10.8	10.8	52	1.3	5	8	292	0.0	1018.9	0	0.000	0.0
20260323 18:25	10.7	10.7	10.7	52	1.3	3	6	292	0.0	1019.0	0	0.000	0.0
20260323 18:30	10.7	10.7	10.7	52	1.2	3	5	292	0.0	1019.0	0	0.000	0.0
20260323 18:35	10.6	10.6	10.6	53	1.4	3	8	292	0.0	1019.0	0	0.000	0.0
20260323 18:40	10.5	10.5	10.5	54	1.6	3	6	292	0.0	1019.1	0	0.000	0.0
20260323 18:45	10.4	10.4	10.4	54	1.5	2	3	292	0.0	1019.1	0	0.000	0.0
20260323 18:50	10.4	10.4	10.4	56	2.0	2	3	292	0.0	1019.2	0	0.000	0.0
20260323 18:55	10.3	10.3	10.3	56	1.9	2	5	292	0.0	1019.3	0	0.000	0.0
20260323 19:00	10.2	10.2	10.2	56	1.8	2	5	292	0.0	1019.3	0	0.025	0.0
20260323 19:05	10.2	10.2	10.2	56	1.8	2	3	292	0.0	1019.2	0	0.000	0.0
20260323 19:10	10.1	10.1	10.1	57	1.9	2	3	292	0.0	1019.2	0	0.000	0.0
20260323 19:15	10.0	10.0	10.0	57	1.9	2	5	292	0.0	1019.3	0	0.000	0.0
20260323 19:20	10.0	10.0	10.0	56	1.6	2	5	292	0.0	1019.3	0	0.000	0.0
20260323 19:25	9.9	9.9	9.9	57	1.8	2	3	292	0.0	1019.4	0	0.000	0.0
20260323 19:30	9.9	9.9	9.9	56	1.6	2	5	292	0.0	1019.5	0	0.000	0.0
20260323 19:35	9.9	9.9	9.9	55	1.3	0	3	292	0.0	1019.5	0	0.000	0.0
20260323 19:40	9.9	9.9	9.9	55	1.3	0	0	-100000	0.0	1019.5	0	0.000	0.0
20260323 19:45	9.9	9.9	9.9	56	1.5	0	0	-100000	0.0	1019.5	0	0.000	0.0
20260323 19:50	9.9	9.9	9.9	56	1.5	0	0	-100000	0.0	1019.5	0	0.000	0.0
20260323 19:55	9.9	9.9	9.9	57	1.8	0	0	-100000	0.0	1019.6	0	0.000	0.0
20260323 20:00	9.8	9.8	9.8	55	1.2	0	0	-100000	0.0	1019.7	0	0.025	0.0
20260323 20:05	9.7	9.7	9.7	55	1.1	0	0	-100000	0.0	1019.6	0	0.000	0.0
20260323 20:10	9.7	9.7	9.7	55	1.1	0	0	-100000	0.0	1019.6	0	0.000	0.0
20260323 20:15	9.6	9.6	9.6	55	1.0	0	0	-100000	0.0	1019.6	0	0.000	0.0
20260323 20:20	9.7	9.7	9.7	56	1.3	0	0	-100000	0.0	1019.7	0	0.000	0.0
20260323 20:25	9.6	9.6	9.6	56	1.3	0	0	-100000	0.0	1019.8	0	0.000	0.0
20260323 20:30	9.6	9.6	9.6	56	1.2	0	0	-100000	0.0	1019.8	0	0.000	0.0
20260323 20:35	9.5	9.5	9.5	57	1.4	0	0	-100000	0.0	1019.8	0	0.000	0.0
20260323 20:40	9.4	9.4	9.4	57	1.3	0	0	-100000	0.0	1019.8	0	0.000	0.0
20260323 20:45	9.3	9.3	9.3	57	1.3	0	0	-100000	0.0	1019.9	0	0.000	0.0
20260323 20:50	9.3	9.3	9.3	57	1.2	0	0	-100000	0.0	1019.9	0	0.000	0.0
20260323 20:55	9.2	9.2	9.2	58	1.3	0	0	-100000	0.0	1019.9	0	0.000	0.0
20260323 21:00	9.1	9.1	9.1	59	1.5	0	0	-100000	0.0	1020.1	0	0.025	0.0
20260323 21:05	8.9	8.9	8.9	60	1.6	0	0	-100000	0.0	1019.8	0	0.000	0.0
20260323 21:10	8.8	8.8	8.8	60	1.5	0	0	-100000	0.0	1019.8	0	0.000	0.0
20260323 21:15	8.7	8.7	8.7	61	1.6	0	0	-100000	0.0	1019.9	0	0.000	0.0
20260323 21:20	8.6	8.6	8.6	61	1.5	0	0	-100000	0.0	1019.9	0	0.000	0.0
20260323 21:25	8.6	8.6	8.6	61	1.5	0	0	-100000	0.0	1020.1	0	0.000	0.0
20260323 21:30	8.6	8.6	8.6	62	1.7	0	0	-100000	0.0	1020.1	0	0.000	0.0
20260323 21:35	8.4	8.4	8.4	63	1.8	0	0	-100000	0.0	1020.2	0	0.000	0.0
20260323 21:40	8.3	8.3	8.3	63	1.7	0	0	-100000	0.0	1020.2	0	0.000	0.0
20260323 21:45	8.2	8.2	8.2	64	1.8	0	0	-100000	0.0	1020.3	0	0.000	0.0
20260323 21:50	7.9	7.9	7.9	64	1.5	0	0	-100000	0.0	1020.2	0	0.000	0.0
20260323 21:55	7.8	7.8	7.8	65	1.6	0	0	-100000	0.0	1020.2	0	0.000	0.0
20260323 22:00	7.6	7.6	7.6	65	1.5	0	0	-100000	0.0	1020.1	0	0.025	0.0
20260323 22:05	7.5	7.5	7.5	66	1.6	0	0	-100000	0.0	1019.9	0	0.000	0.0
20260323 22:10	7.3	7.3	7.3	66	1.4	0	0	-100000	0.0	1020.0	0	0.000	0.0
20260323 22:15	7.2	7.2	7.2	67	1.5	0	0	-100000	0.0	1020.1	0	0.000	0.0
20260323 22:20	7.1	7.1	7.1	67	1.4	0	0	-100000	0.0	1020.1	0	0.000	0.0
20260323 22:25	7.0	7.0	7.0	67	1.3	0	0	-100000	0.0	1020.2	0	0.000	0.0
20260323 22:30	6.8	6.8	6.8	68	1.3	0	0	-100000	0.0	1020.3	0	0.000	0.0
20260323 22:35	6.8	6.8	6.8	68	1.3	0	0	-100000	0.0	1020.3	0	0.000	0.0
20260323 22:40	6.6	6.6	6.6	68	1.1	0	0	-100000	0.0	1020.2	0	0.000	0.0
20260323 22:45	6.6	6.6	6.6	69	1.3	0	0	-100000	0.0	1020.2	0	0.000	0.0
20260323 22:50	6.4	6.4	6.4	69	1.2	0	0	-100000	0.0	1020.2	0	0.000	0.0
20260323 22:55	6.3	6.3	6.3	70	1.3	0	0	-100000	0.0	1020.2	0	0.000	0.0
20260323 23:00	6.2	6.2	6.2	70	1.2	0	0	-100000	0.0	1020.3	0	0.025	0.0
20260323 23:05	6.1	6.1	6.1	70	1.1	0	0	-100000	0.0	1020.1	0	0.000	0.0
20260323 23:10	5.9	5.9	5.9	71	1.1	0	0	-100000	0.0	1020.1	0	0.000	0.0
20260323 23:15	5.8	5.8	5.8	71	1.0	0	0	-100000	0.0	1020.1	0	0.000	0.0
20260323 23:20	5.8	5.8	5.8	72	1.1	3	6	158	0.0	1020.1	0	0.000	0.0
20260323 23:25	5.7	5.7	5.7	71	0.9	3	6	158	0.0	1020.2	0	0.000	0.0
20260323 23:30	5.7	5.7	5.7	71	0.9	5	8	180	0.0	1020.2	0	0.000	0.0
20260323 23:35	5.7	5.7	5.7	71	0.8	5	10	180	0.0	1020.2	0	0.000	0.0
20260323 23:40	5.6	5.6	5.6	71	0.8	5	8	180	0.0	1020.2	0	0.000	0.0
20260323 23:45	5.5	5.5	5.5	72	0.9	5	8	180	0.0	1020.3	0	0.000	0.0
20260323 23:50	5.4	5.4	5.4	72	0.8	3	6	180	0.0	1020.3	0	0.000	0.0
20260323 23:55	5.3	5.3	5.3	72	0.6	3	6	180	0.0	1020.3	0	0.000	0.0



Please note the license to use and transfer of this data:
https://creativecommons.org/licenses/by-nc-sa/3.0/deed.en

Bitte beachten sie die Lizenz zur Verwertung und Weitergabe der Daten:
https://creativecommons.org/licenses/by-nc-sa/3.0/deed.de

zurück zur Übersicht der Archivdaten (Monats und Tagesdaten)